Main page
METAR-TAF:

METAR-TAF

Airports :

Zabol, Iran

Zabol Airport

latitude: 31-20N, longitude: 061-29E, elevation: 489 m

Current weather observation

The report was made 19 minutes ago, at 17:00 UTC
Wind 19 kt from the North/Northwest with gusts up to 29 kt
Temperature 34°C
Humidity 20%
Pressure 1003 hPa
Visibility: 8000 m

METAR: OIZB 261700Z 34019G29KT 8000 NSC 34/08 Q1003

Time: 21:49 (17:19 UTC)


TAF: missing

Weather observations and forecasts of more than 4000 airports (METAR and TAF reports).

The available stations are represented by yellow and red dots on the map.

Hover mouse over dot to see the name of the station.

Then click to see weather observations and forecasts.

To change the map : click on the green buttons with a black cross to zoom in, on the green button with a dash to zoom out, or on the green arrows for adjacent maps.


METAR-TAF: